Find Starlink 3139

NORAD ID: 49425 Int'l Des: 2021-104 Owner: SPXS Country: US Constellation: starlink operational
LEOCIRCULAR

現在のビュー

3D地球を読み込み中...

About Starlink 3139

Starlink 3139 (NORAD 49425) is a starlink constellation satellite (v1.5) launched Nov 13, 2021 by SPXS of US. It operates in LEO, CIRCULAR orbit with a mass of 290.00 kg.

次回通過

Passes for default location (London). Set your location on the main map for personalized predictions.

高度履歴

Loading altitude history...

軌道要素

1 49425U 21104T 26263.05177653 -.00000788 00000-0 -13650-4 0 9999
2 49425 53.1613 62.9191 0001160 83.2818 276.8315 15.31691446268166
Epoch: Sep 20, 2026 • Age: 14 hours

現在のステータス

高度 489.8 km
遠地点 / 近地点 N/A
速度 7.62 km/s
衛星直下点 -52.47°S, 93.06°E
打ち上げ日 Nov 13, 2021
運用期間 4.8 years
タイプ internet

技術仕様

分類 Payload
質量 290.00 kg
乾燥質量 270.00 kg
長さ 0.20 m
スパン 9.00 m
形状 ? Box + pan
製造者 SPXS
バスタイプ Starlink
フェーズステータス In Orbit
所有者/国 SPXS/US

Most Searched